Weather Roundup
Issued by NWS Chicago, IL

Home | Current Version | Previous Version | Text Only | Print | Product List | Glossary Off
Versions: 1 2 3 4 5 6 7 8 9 10 11 12 13 14 15 16 17 18 19 20 21 22 23 24 25 26 27 28 29 30 31 32 33 34 35 36 37 38 39 40 41 42 43 44 45 46 47 48 49 50

000
NZUS59 KLOT 241103
HRRLOT

CHICAGO AREA WEATHER ROUNDUP
NATIONAL WEATHER SERVICE CHICAGO/ROMEOVILLE IL
600 AM CDT SUN JUL 24 2016

NOTE: "FAIR" INDICATES FEW OR NO CLOUDS BELOW 12,000 FEET WITH NO
SIGNIFICANT WEATHER AND/OR OBSTRUCTIONS TO VISIBILITY.

* THESE STATIONS ARE NOT UNDER NWS QUALITY CONTROL. THEY ALSO MAY NOT
  REPORT WEATHER SUCH AS PRECIPITATION OR FOG.

ILZ005-006-012>014-019>023-241200-
NORTHEAST ILLINOIS

CITY           SKY/WX    TMP DP  RH WIND       PRES   REMARKS
OHARE          PTCLDY    72  69  90 S12       29.90F
MIDWAY         MOCLDY    73  69  87 S9        29.91S
AURORA         CLEAR     72  70  93 S10       29.91S FOG
LANSING*       PTCLDY    70  68  93 S7        29.94S
WAUKEGAN       CLEAR     72  69  90 S14       29.87S
DUPAGE AIRPORT CLEAR     72  68  87 S10       29.90F
WHEELING       CLEAR     72  69  90 S10       29.90S
MORRIS*        CLEAR     71  70  96 CALM      29.91S
NORTHERLY ISL    N/A     72  68  87 S7          N/A
$$

WIZ051-052-058>065-066-070>072-241200-
SOUTHEAST WISCONSIN

CITY           SKY/WX    TMP DP  RH WIND       PRES   REMARKS
MILWAUKEE      CLOUDY    73  69  87 SW9       29.86R
KENOSHA*       CLEAR     73  69  87 S9        29.87F
RACINE*        CLOUDY    73  69  87 SW10      29.88S
BURLINGTON     CLEAR     72  70  95 S8        29.87S
WAUKESHA       CLEAR     70  68  94 S9        29.87R
$$

INZ001>003-010>013-019-020-241200-
NORTHWEST INDIANA

CITY           SKY/WX    TMP DP  RH WIND       PRES   REMARKS
GARY*          MOCLDY    72 N/A N/A S7        29.93R
MICHIGAN CITY* NOT AVBL
RENSSELAER*    NOT AVBL
VALPARAISO     CLOUDY    71  69  93 S5        29.96R
$$

LMZ740>746-241200-
SOUTHERN LAKE MICHIGAN

STATION/POSITION TIME  SKY/WX   TEMP WIND        PRES    VSBY
                                AIR  DIR/SP/G
                 (UTC)          (F)  (DEG/KT/KT) (MB)    (MI)
HARRISON CRIB    1000            73  190/ 11/ 12   N/A
BURNHAM HARBOR   1100            72  190/  5/  9   N/A
CALUMET HARBOR   1000            72  180/  5/  7 1012.6R
BURNS HARBOR     1004            72  190/  7/ 10 1013.9R
MICHIGAN CITY    1000            73  130/  9/ 10   N/A
$$

ABBREVIATIONS USED IN REMARKS
   TC - TEMPERATURE IN CELSIUS
  WCI - WIND CHILL INDEX
   HX - HEAT INDEX
  VSB - VISIBILITY
$$




USA.gov is the U.S. government's official web portal to all federal, state and local government web resources and services.